Flag for Poland Weather past 2 weeks in Kalisz, Poland

Now
40 °F

Overcast.


Feels Like: 34 °F
Forecast: 37 / 48 °F
Wind: 8 mph from West

Location: Kalisz

Current Time: Mar 30, 2015 at 10:21:25 PM

Latest Report: Mar 30, 2015 at 9:00 PM


Visibility: 31 mi

Pressure: 29.50 "Hg

Humidity: 85%

Dew point: 35 °F

Location of KaliszLocation

Historic Weather in Kalisz — Graph

°F

Kalisz temperature yesterday

Maximum temperature yesterday: 49 °F (at 6:00 PM)
Minimum temperature yesterday: 33 °F (at 4:00 AM)
Average temperature yesterday: 42 °F

Past Weeks' High & Low Weather Summary

 TemperatureHumidityPressure
High64 °F (Mar 25, 3:00 PM)100% (Mar 29, 6:00 AM)30.63 "Hg (Mar 29, 6:00 AM)
Low28 °F (Mar 23, 2:00 AM)25% (Mar 18, 3:00 PM)29.15 "Hg (Mar 30, 4:00 AM)
Average44 °F64%30.08 "Hg
* Reported Mar 15 8:00 PM — Mar 30 9:00 PM, Kalisz, Weather by CustomWeather, © 2015

Note: Actual official high and low records may vary slightly from our data, if they occured in-between our weather recording intervals... More about our weather records

Advertising

Kalisz weather history for previous 24 hours

 ConditionsComfort  
Time TempWeatherWind HumidityBarometerVisibility
9:00 PM
Mon, Mar 30
40 °FOvercast.8 mph85%29.50 "Hg31 mi
8:00 PM40 °FSprinkles. Overcast.9 mph80%29.47 "Hg12 mi
7:00 PM42 °FSprinkles. Overcast.8 mph81%29.41 "Hg19 mi
6:00 PM43 °FOvercast.8 mph79%29.38 "Hg31 mi
5:00 PM46 °FSprinkles. Overcast.13 mph61%29.32 "Hg19 mi
4:00 PM47 °FOvercast.12 mph58%29.29 "Hg28 mi
3:00 PM45 °FOvercast.12 mph72%29.29 "Hg25 mi
2:00 PM44 °FOvercast.13 mph77%29.26 "Hg19 mi
1:00 PM49 °FOvercast.13 mph62%29.23 "Hg25 mi
12:00 PM45 °FOvercast.15 mph68%29.23 "Hg25 mi
11:00 AM48 °FPartly sunny.15 mph66%29.23 "Hg25 mi
10:00 AM46 °FPartly sunny.14 mph68%29.23 "Hg25 mi
9:00 AM45 °FOvercast.12 mph70%29.21 "Hg31 mi
8:00 AM43 °FScattered clouds.12 mph73%29.21 "Hg31 mi
7:00 AM44 °FScattered clouds.10 mph75%29.21 "Hg31 mi
6:00 AM46 °FPassing clouds.14 mph74%29.18 "Hg31 mi
5:00 AM47 °FOvercast.9 mph84%29.15 "Hg31 mi
4:00 AM48 °FSprinkles. Overcast.10 mph86%29.15 "Hg12 mi
3:00 AM47 °FOvercast.9 mph88%29.18 "Hg31 mi
2:00 AM47 °FLight rain. Overcast.8 mph91%29.21 "Hg5 mi
1:00 AM46 °FLight rain. Overcast.6 mph92%29.26 "Hg6 mi
12:00 AM47 °FLight rain. Overcast.6 mph95%29.32 "Hg4 mi
10:00 PM
Sun, Mar 29
48 °FLight rain. Overcast.6 mph94%29.41 "Hg4 mi
Weather by CustomWeather, © 2015

See weather overviewHow to use our weather pages